TimeEDT,TemperatureF,Dew PointF,Humidity,Sea Level PressureIn,VisibilityMPH,Wind Direction,Wind SpeedMPH,Gust SpeedMPH,PrecipitationIn,Events,Conditions,WindDirDegrees,DateUTC
12:51 AM,68.0,64.0,87,29.92,10.0,South,3.5,-,N/A,,Clear,190,2013-07-21 04:51:00
1:51 AM,68.0,64.0,87,29.92,10.0,Calm,Calm,-,N/A,,Scattered Clouds,0,2013-07-21 05:51:00
2:51 AM,68.0,64.0,87,29.91,10.0,South,3.5,-,N/A,,Mostly Cloudy,170,2013-07-21 06:51:00
3:51 AM,66.9,64.0,90,29.92,9.0,Calm,Calm,-,N/A,,Scattered Clouds,0,2013-07-21 07:51:00
4:51 AM,66.0,64.0,93,29.92,9.0,SSE,3.5,-,N/A,,Mostly Cloudy,150,2013-07-21 08:51:00
5:51 AM,66.0,63.0,90,29.94,9.0,Calm,Calm,-,N/A,,Clear,0,2013-07-21 09:51:00
6:51 AM,66.9,63.0,87,29.94,9.0,Calm,Calm,-,N/A,,Clear,0,2013-07-21 10:51:00
7:51 AM,69.1,64.0,84,29.96,10.0,Calm,Calm,-,N/A,,Scattered Clouds,0,2013-07-21 11:51:00
8:51 AM,73.0,63.0,71,29.96,10.0,East,6.9,-,N/A,,Mostly Cloudy,80,2013-07-21 12:51:00
9:51 AM,75.9,62.1,62,29.96,10.0,NE,5.8,-,N/A,,Clear,40,2013-07-21 13:51:00
10:51 AM,79.0,64.0,60,29.97,10.0,North,6.9,-,N/A,,Clear,10,2013-07-21 14:51:00
11:51 AM,79.0,64.0,60,29.98,10.0,North,10.4,-,N/A,,Partly Cloudy,360,2013-07-21 15:51:00
12:51 PM,79.0,64.0,60,29.98,10.0,NNE,6.9,-,N/A,,Clear,20,2013-07-21 16:51:00
1:51 PM,79.0,66.0,64,29.97,10.0,NE,9.2,-,N/A,,Clear,40,2013-07-21 17:51:00
2:51 PM,79.0,64.9,62,29.97,10.0,NE,11.5,-,N/A,,Clear,40,2013-07-21 18:51:00
3:51 PM,78.1,63.0,60,29.96,10.0,NNE,11.5,-,N/A,,Clear,20,2013-07-21 19:51:00
4:51 PM,77.0,61.0,58,29.96,10.0,ENE,11.5,-,N/A,,Clear,60,2013-07-21 20:51:00
5:51 PM,77.0,57.9,52,29.96,10.0,NE,9.2,-,N/A,,Clear,40,2013-07-21 21:51:00
6:51 PM,77.0,57.9,52,29.94,10.0,NE,9.2,-,N/A,,Clear,40,2013-07-21 22:51:00
7:51 PM,75.9,59.0,56,29.94,10.0,NNE,8.1,-,N/A,,Clear,30,2013-07-21 23:51:00
8:51 PM,73.9,61.0,64,29.94,10.0,ENE,8.1,-,N/A,,Clear,60,2013-07-22 00:51:00
9:51 PM,73.0,64.9,76,29.96,10.0,ENE,8.1,-,N/A,,Clear,70,2013-07-22 01:51:00
10:51 PM,72.0,64.0,76,29.97,10.0,East,6.9,-,N/A,,Clear,90,2013-07-22 02:51:00
11:51 PM,70.0,63.0,78,29.97,10.0,ENE,4.6,-,N/A,,Clear,60,2013-07-22 03:51:00